SV1BYK-2 Weather Reports


Display with metric or nautical units.
time (UTC)temp
F
wind
direction
speed
MPH
gust
MPH
rain 1hr
in
rain 24hr
in
rain mn
in
humidity
%
barometer
mb
20260901130903 97 262 2.0 7.0 0.00 0.00 0.00 30 1007.0
20260901130004 98 286 2.0 9.0 0.00 0.00 0.00 29 1007.0
20260901125613 97 268 4.0 9.0 0.00 0.00 0.00 30 1007.0
20260901124715 98 240 3.0 11.0 0.00 0.00 0.00 30 1007.2
20260901123813 97 275 3.0 8.0 0.00 0.00 0.00 29 1007.2
20260901122915 97 195 4.0 11.0 0.00 0.00 0.00 30 1007.5
20260901122017 96 58 4.0 11.0 0.00 0.00 0.00 30 1007.6
20260901120903 97 255 2.0 8.0 0.00 0.00 0.00 29 1007.6
20260901120004 97 273 3.0 8.0 0.00 0.00 0.00 29 1007.4
20260901115403 96 288 3.0 9.0 0.00 0.00 0.00 29 1007.5
20260901114503 96 255 4.0 9.0 0.00 0.00 0.00 30 1007.6
20260901113603 96 263 3.0 8.0 0.00 0.00 0.00 29 1007.7
20260901112916 96 219 3.0 11.0 0.00 0.00 0.00 29 1007.6
20260901111804 96 267 2.0 9.0 0.00 0.00 0.00 30 1007.6
20260901111115 96 267 4.0 11.0 0.00 0.00 0.00 29 1007.6
20260901110218 96 102 2.0 11.0 0.00 0.00 0.00 29 1007.7
20260901105403 95 213 4.0 11.0 0.00 0.00 0.00 29 1007.8
20260901104503 94 304 5.0 11.0 0.00 0.00 0.00 30 1007.7
20260901103603 95 282 4.0 13.0 0.00 0.00 0.00 30 1007.7
20260901102703 94 288 4.0 11.0 0.00 0.00 0.00 30 1007.8
20260901102014 94 281 4.0 13.0 0.00 0.00 0.00 30 1007.9
20260901101116 94 201 4.0 11.0 0.00 0.00 0.00 29 1008.0
20260901100004 95 273 4.0 8.0 0.00 0.00 0.00 28 1008.1
20260901095404 96 276 2.0 6.0 0.00 0.00 0.00 29 1008.0
20260901094504 95 289 2.0 9.0 0.00 0.00 0.00 30 1008.1
20260901093815 94 304 2.0 9.0 0.00 0.00 0.00 31 1008.1
20260901092917 94 257 3.0 7.0 0.00 0.00 0.00 31 1008.3
20260901091803 94 260 2.0 6.0 0.00 0.00 0.00 32 1008.6
20260901090903 95 251 2.0 8.0 0.00 0.00 0.00 31 1008.3
20260901090214 94 261 2.0 9.0 0.00 0.00 0.00 32 1008.3
20260901085403 93 274 4.0 9.0 0.00 0.00 0.00 32 1008.1
20260901084718 94 267 2.0 6.0 0.00 0.00 0.00 32 1008.2
20260901083604 93 251 2.0 6.0 0.00 0.00 0.00 33 1008.2
20260901082918 93 287 2.0 8.0 0.00 0.00 0.00 33 1008.1
20260901081804 92 276 2.0 8.0 0.00 0.00 0.00 34 1008.3
20260901081117 91 263 2.0 7.0 0.00 0.00 0.00 35 1008.3
20260901080215 92 288 2.0 4.0 0.00 0.00 0.00 35 1008.3
20260901075404 91 286 2.0 4.0 0.00 0.00 0.00 36 1008.2
20260901074713 91 296 1.0 6.0 0.00 0.00 0.00 36 1008.3
20260901073816 89 307 1.0 4.0 0.00 0.00 0.00 38 1008.5
20260901072913 89 299 0.0 9.0 0.00 0.00 0.00 39 1008.2
20260901071804 87 277 2.0 6.0 0.00 0.00 0.00 41 1007.9
20260901071113 89 234 0.0 4.0 0.00 0.00 0.00 38 1008.4
20260901070215 89 134 2.0 2.0 0.00 0.00 0.00 38 1008.2
20260901065617 89 91 1.0 4.0 0.00 0.00 0.00 38 1007.9
20260901064714 89 98 1.0 2.0 0.00 0.00 0.00 37 1007.9
20260901063603 89 96 0.0 2.0 0.00 0.00 0.00 38 1008.0
20260901062914 87 342 1.0 2.0 0.00 0.00 0.00 39 1008.2
20260901062016 86 275 0.0 2.0 0.00 0.00 0.00 40 1008.2
20260901060903 86 289 0.0 2.0 0.00 0.00 0.00 41 1008.2
20260901060216 87 278 0.0 2.0 0.00 0.00 0.00 40 1008.2
20260901055404 84 297 0.0 4.0 0.00 0.00 0.00 43 1008.3
20260901054504 84 296 0.0 4.0 0.00 0.00 0.00 43 1008.2
20260901053603 85 270 0.0 2.0 0.00 0.00 0.00 41 1008.3
20260901052703 85 0 0.0 0.0 0.00 0.00 0.00 41 1008.2
20260901052017 83 270 0.0 2.0 0.00 0.00 0.00 43 1008.3
20260901051114 82 270 0.0 2.0 0.00 0.00 0.00 45 1008.1
20260901050217 80 270 0.0 2.0 0.00 0.00 0.00 46 1008.2
20260901045613 80 270 0.0 2.0 0.00 0.00 0.00 47 1008.2
20260901044715 79 272 0.0 2.0 0.00 0.00 0.00 48 1008.1
20260901043604 79 292 0.0 2.0 0.00 0.00 0.00 48 1008.3
20260901042915 78 292 0.0 2.0 0.00 0.00 0.00 48 1008.0
20260901042017 78 292 0.0 2.0 0.00 0.00 0.00 48 1007.7
20260901041115 78 0 0.0 0.0 0.00 0.00 0.00 48 1008.1
20260901040217 79 292 0.0 2.0 0.00 0.00 0.00 47 1007.8
20260901035403 79 292 0.0 2.0 0.00 0.00 0.00 47 1007.5
20260901034503 79 292 0.0 2.0 0.00 0.00 0.00 47 1007.8
20260901033603 79 292 1.0 2.0 0.00 0.00 0.00 46 1007.6
20260901032703 78 292 0.0 2.0 0.00 0.00 0.00 46 1007.5
20260901031803 79 292 0.0 2.0 0.00 0.00 0.00 46 1007.6
20260901031115 79 0 0.0 0.0 0.00 0.00 0.00 46 1007.7
20260901030218 80 292 0.0 4.0 0.00 0.00 0.00 45 1007.6
20260901025404 80 292 0.0 2.0 0.00 0.00 0.00 45 1007.5
20260901024504 80 292 2.0 4.0 0.00 0.00 0.00 45 1007.5
20260901023814 79 292 0.0 2.0 0.00 0.00 0.00 45 1007.4
20260901022916 80 292 0.0 2.0 0.00 0.00 0.00 45 1007.5
20260901022014 80 297 1.0 4.0 0.00 0.00 0.00 45 1007.4
20260901021116 80 315 0.0 4.0 0.00 0.00 0.00 44 1007.4
20260901020003 80 307 3.0 4.0 0.00 0.00 0.00 43 1007.6
20260901015615 80 315 3.0 4.0 0.00 0.00 0.00 43 1007.5
20260901014717 80 307 2.0 4.0 0.00 0.00 0.00 43 1007.2
20260901013604 80 292 0.0 2.0 0.00 0.00 0.00 44 1007.6
20260901012917 80 302 1.0 6.0 0.00 0.00 0.00 43 1007.4
20260901012014 80 305 4.0 6.0 0.00 0.00 0.00 43 1007.4
20260901010903 80 281 0.0 2.0 0.00 0.00 0.00 43 1007.6
20260901010214 80 269 0.0 2.0 0.00 0.00 0.00 43 1007.3
20260901005403 80 251 0.0 2.0 0.00 0.00 0.00 42 1007.5
20260901004713 80 247 0.0 2.0 0.00 0.00 0.00 42 1007.5
20260901003603 81 293 1.0 2.0 0.00 0.00 0.00 42 1007.7
20260901002918 81 315 1.0 2.0 0.00 0.00 0.00 41 1007.6
20260901001804 81 302 0.0 4.0 0.00 0.00 0.00 41 1007.5
20260901000903 81 312 0.0 4.0 0.00 0.00 0.00 41 1007.5
20260901000004 82 315 2.0 4.0 0.00 0.00 0.00 41 1007.5
20260831235616 82 315 2.0 4.0 0.00 0.00 0.00 41 1007.5
20260831234503 81 298 1.0 4.0 0.00 0.00 0.00 41 1007.8
20260831233816 81 292 2.0 4.0 0.00 0.00 0.00 42 1007.9
20260831232703 81 292 0.0 4.0 0.00 0.00 0.00 42 1008.0
20260831231803 81 279 0.0 4.0 0.00 0.00 0.00 41 1008.0
20260831230903 81 0 0.0 0.0 0.00 0.00 0.00 42 1008.4
20260831230215 81 270 0.0 2.0 0.00 0.00 0.00 42 1008.3
20260831225404 82 270 0.0 2.0 0.00 0.00 0.00 42 1008.3
20260831224504 82 270 0.0 2.0 0.00 0.00 0.00 42 1007.9
20260831223816 82 270 1.0 2.0 0.00 0.00 0.00 39 1008.2
20260831222703 82 270 0.0 2.0 0.00 0.00 0.00 39 1008.4
20260831222016 82 270 0.0 2.0 0.00 0.00 0.00 42 1008.4
20260831220903 82 275 1.0 2.0 0.00 0.00 0.00 40 1008.6
20260831220216 83 286 0.0 2.0 0.00 0.00 0.00 39 1008.4
20260831215403 83 292 0.0 2.0 0.00 0.00 0.00 39 1008.5
20260831214715 82 292 0.0 2.0 0.00 0.00 0.00 39 1008.6
20260831213604 83 0 0.0 0.0 0.00 0.00 0.00 39 1008.5
20260831212914 83 292 0.0 2.0 0.00 0.00 0.00 39 1008.6
20260831212017 83 292 0.0 4.0 0.00 0.00 0.00 38 1008.6
20260831211114 83 0 0.0 0.0 0.00 0.00 0.00 42 1008.6
20260831210011 84 292 0.0 4.0 0.00 0.00 0.00 41 1008.3
20260831205403 84 285 2.0 4.0 0.00 0.00 0.00 41 1008.6
20260831204715 84 270 0.0 2.0 0.00 0.00 0.00 41 1008.3
20260831203813 84 268 0.0 2.0 0.00 0.00 0.00 40 1008.5
20260831202703 84 246 0.0 4.0 0.00 0.00 0.00 39 1008.4
20260831201804 84 253 1.0 4.0 0.00 0.00 0.00 39 1008.3
20260831200904 84 255 2.0 4.0 0.00 0.00 0.00 39 1008.5
20260831200004 84 266 2.0 6.0 0.00 0.00 0.00 39 1008.4
20260831195614 84 256 2.0 6.0 0.00 0.00 0.00 39 1008.5
20260831194503 84 248 1.0 4.0 0.00 0.00 0.00 39 1008.3
20260831193813 84 229 2.0 4.0 0.00 0.00 0.00 39 1008.4
20260831192703 84 251 2.0 6.0 0.00 0.00 0.00 39 1008.2
20260831192013 84 236 3.0 4.0 0.00 0.00 0.00 38 1008.2
20260831191115 84 237 2.0 7.0 0.00 0.00 0.00 38 1008.4
20260831190004 85 247 2.0 4.0 0.00 0.00 0.00 38 1008.2
20260831185614 85 220 2.0 4.0 0.00 0.00 0.00 38 1008.0
20260831184717 85 247 2.0 4.0 0.00 0.00 0.00 38 1008.0
20260831183604 85 272 1.0 4.0 0.00 0.00 0.00 37 1007.8
20260831182916 85 264 1.0 4.0 0.00 0.00 0.00 37 1007.7
20260831181803 85 269 1.0 4.0 0.00 0.00 0.00 37 1007.6
20260831181116 85 246 2.0 4.0 0.00 0.00 0.00 37 1007.7
20260831180213 86 265 2.0 4.0 0.00 0.00 0.00 37 1007.6
20260831175615 86 266 2.0 2.0 0.00 0.00 0.00 37 1007.7
20260831174503 86 238 2.0 7.0 0.00 0.00 0.00 37 1007.5
20260831173603 86 211 2.0 4.0 0.00 0.00 0.00 36 1007.5
20260831172704 87 247 1.0 4.0 0.00 0.00 0.00 36 1007.4
20260831171804 87 242 2.0 6.0 0.00 0.00 0.00 36 1007.5
20260831171117 87 267 2.0 4.0 0.00 0.00 0.00 36 1007.5
20260831170004 87 257 1.0 6.0 0.00 0.00 0.00 36 1007.5
20260831165616 87 249 2.0 6.0 0.00 0.00 0.00 36 1007.3
20260831164503 88 271 2.0 6.0 0.00 0.00 0.00 36 1007.3
20260831163603 89 245 2.0 6.0 0.00 0.00 0.00 35 1007.3
20260831162703 90 240 2.0 6.0 0.00 0.00 0.00 35 1007.2
20260831162015 90 228 2.0 4.0 0.00 0.00 0.00 34 1007.4
20260831160903 91 253 2.0 8.0 0.00 0.00 0.00 34 1007.3
20260831160004 92 288 2.0 9.0 0.00 0.00 0.00 33 1007.1
20260831155616 92 308 2.0 9.0 0.00 0.00 0.00 33 1007.3
20260831154504 94 212 2.0 4.0 0.00 0.00 0.00 32 1007.2
20260831153603 95 253 2.0 4.0 0.00 0.00 0.00 31 1007.4
20260831152703 95 265 2.0 4.0 0.00 0.00 0.00 31 1007.2
20260831152016 96 278 1.0 4.0 0.00 0.00 0.00 31 1007.2
20260831150903 95 253 2.0 4.0 0.00 0.00 0.00 31 1007.1
20260831150004 95 242 3.0 6.0 0.00 0.00 0.00 32 1007.3
20260831145617 95 254 2.0 6.0 0.00 0.00 0.00 32 1007.1
20260831144504 95 356 2.0 8.0 0.00 0.00 0.00 32 1007.3
20260831143817 95 133 4.0 7.0 0.00 0.00 0.00 32 1007.5
20260831142704 95 171 1.0 7.0 0.00 0.00 0.00 37 1007.4
20260831142016 93 131 2.0 8.0 0.00 0.00 0.00 39 1007.3
20260831141113 93 134 2.0 8.0 0.00 0.00 0.00 38 1007.4
20260831140216 94 155 3.0 7.0 0.00 0.00 0.00 38 1007.5
20260831135617 95 204 1.0 7.0 0.00 0.00 0.00 37 1007.5
20260831134715 93 243 2.0 8.0 0.00 0.00 0.00 38 1007.5
20260831133603 94 224 2.0 6.0 0.00 0.00 0.00 38 1007.6
20260831132703 93 269 2.0 11.0 0.00 0.00 0.00 37 1007.2
20260831132017 92 249 6.0 11.0 0.00 0.00 0.00 38 1007.4